[[{"header":{"parameterUnit":"m.s-1","parameterCategory":1,"la1":30.2991,"la2":30.254,"lo1":-89.0895,"lo2":-89.0444,"dy":0.0017,"dx":0.0017,"nx":28,"ny":28,"refTime":"2025-01-11T09:00:00:Z","depth":0,"parameterNumber":2,"parameterNumberName":"U-component_of_WINDS"},"data":[0,0,0,0,0,0,0,0,0,0,0,0,0,0,0,0,0,0,0,0,0,0,0,0,0,0,0,0,0,0,0,0,0,0,0,0,0,0,0,0,0,0,0,0,0,0,0,0,0,0,0,0,0,0,0,0,0,0,-4.3133,-4.3133,0,-4.3149,-4.3149,-4.3149,-4.2981,-4.2977,-4.2972,-4.2967,-4.2991,-4.2996,-4.3001,0,0,0,0,0,0,0,0,0,0,0,0,0,-4.2964,-4.2968,-4.3133,-4.3133,-4.3133,-4.3149,-4.3149,-4.3149,-4.2982,-4.2976,-4.2971,-4.2965,-4.299,-4.2995,-4.3001,0,0,0,0,0,0,0,0,0,0,0,0,0,-4.3015,-4.2969,-4.3133,-4.3051,-4.3044,-4.3149,-4.3149,-4.3149,-4.2983,-4.2976,-4.2969,-4.2963,-4.2988,-4.2995,-4.3002,-4.3187,0,0,-4.3025,-4.3028,0,0,0,0,0,0,0,0,-4.3012,-4.3021,-4.3063,-4.3057,-4.3049,-4.3056,-4.3098,-4.3162,-4.2985,-4.3007,-4.2967,-4.2959,-4.3019,-4.3023,-4.3042,-4.3189,-4.319,-4.3025,-4.303,-4.3033,-4.3035,0,0,0,0,0,0,0,-4.3009,-4.302,-4.3139,-4.3064,-4.3056,-4.3016,-4.3016,-4.3109,-4.3052,-4.3004,-4.2992,-4.2996,-4.3014,-4.3035,-4.3041,-4.319,-4.3025,-4.3032,-4.3036,-4.3039,-4.3491,-4.3499,0,0,0,0,0,0,-4.3015,-4.3018,-4.3139,-4.314,-4.3013,-4.3025,-4.3024,-4.3061,-4.305,-4.3042,-4.3002,-4.2988,-4.3026,-4.3033,-4.3041,-4.3258,-4.3033,-4.304,-4.3044,-4.3484,-4.3493,-4.3501,0,0,0,0,0,0,-4.3012,-4.3028,-4.3138,-4.3075,-4.3086,-4.3035,-4.3078,-4.3065,-4.3086,-4.3048,-4.3038,-4.3034,-4.302,-4.3031,-4.3152,-4.3256,-4.3043,-4.305,-4.3475,-4.3487,-4.3497,-4.3693,0,0,0,0,0,0,-4.3008,-4.3028,-4.3096,-4.3078,-4.309,-4.3247,-4.3084,-4.307,-4.3098,-4.308,-4.3075,-4.3068,-4.3016,-4.3142,-4.316,-4.3263,-4.3056,-4.3465,-4.348,-4.3494,-4.3677,-4.371,-4.3738,0,0,0,0,0,-4.3003,-4.3151,-4.31,-4.3115,-4.3174,-4.3253,-4.326,-4.3195,-4.3107,-4.3176,-4.3153,-4.3068,-4.3242,-4.3156,-4.3174,-4.3281,-4.3459,-4.3476,-4.3493,-4.3664,-4.3704,-4.3737,0,0,0,0,0,0,-4.3185,-4.3148,-4.309,-4.3237,-4.3249,-4.3225,-4.331,-4.3239,-4.3279,-4.3261,-4.318,-4.3181,-4.3316,-4.3311,-4.3215,-4.3461,-4.3335,-4.3357,-4.3459,-4.3497,-4.3527,-4.3525,-4.3062,0,0,0,0,0,-4.3242,-4.3307,-4.3272,-4.3405,-4.3414,-4.3362,-4.3394,-4.3342,-4.3353,-4.3358,-4.3342,-4.3358,-4.3416,-4.3456,-4.3507,-4.3676,-4.3673,-4.3759,-4.3789,-4.3814,-4.3834,-4.3924,-4.3962,-4.3557,-4.3557,-4.3557,0,0,-4.3361,-4.3348,-4.3395,-4.3441,-4.3445,-4.3516,-4.3367,-4.3449,-4.3502,-4.3371,-4.3483,-4.3474,-4.3486,-4.3632,-4.3696,-4.3632,-4.3946,-4.3836,-4.3856,-4.3862,-4.3946,-4.3984,-4.4018,-4.3569,-4.3566,-4.3565,0,0,-4.3613,-4.361,-4.3721,-4.3727,-4.3734,-4.3698,-4.3725,-4.3712,-4.3699,-4.3811,-4.3715,-4.3778,-4.388,-4.3892,-4.3912,-4.4172,-4.4097,-4.4192,-4.435,-4.4439,-4.4471,-4.4499,-4.4592,-4.4627,-4.4211,-4.4212,-4.4212,0,-4.3761,-4.3862,-4.3788,-4.3876,-4.39,-4.3783,-4.3896,-4.3907,-4.3932,-4.3952,-4.388,-4.4005,-4.4005,-4.4153,-4.4217,-4.4236,-4.4266,-4.4191,-4.4472,-4.4499,-4.4524,-4.4612,-4.4648,-4.4223,-4.4222,-4.4221,-4.422,0,-4.4044,-4.4116,-4.4205,-4.4229,-4.4264,-4.4365,-4.4308,-4.4352,-4.4299,-4.4272,-4.4388,-4.4384,-4.4433,-4.4465,-4.4414,-4.4607,-4.4567,-4.4485,-4.4357,-4.4575,-4.4657,-4.469,-4.424,-4.4236,-4.4232,-4.4229,0,0,-4.441,-4.4392,-4.4427,-4.4437,-4.4436,-4.4492,-4.4589,-4.4634,-4.4674,-4.4696,-4.4776,-4.4866,-4.4789,-4.4813,-4.4763,-4.4841,-4.5048,-4.4749,-4.4748,-4.4805,-4.5262,-4.5324,-4.5364,-4.4998,-4.5004,-4.5009,-4.5261,0,-4.4657,-4.4817,-4.4754,-4.4922,-4.4988,-4.4879,-4.4964,-4.4974,-4.4952,-4.5008,-4.4984,-4.5049,-4.4943,-4.4956,-4.5029,-4.5008,-4.5139,-4.4989,-4.5074,-4.5078,-4.5074,-4.5406,-4.5472,-4.5709,-4.5292,-4.5298,-4.5302,0,-4.4965,-4.4997,-4.5171,-4.5159,-4.5185,-4.5262,-4.5299,-4.5353,-4.5364,-4.5343,-4.5369,-4.5303,-4.5399,-4.5272,-4.5405,-4.5304,-4.5336,-4.5331,-4.5339,-4.5344,-4.5203,-4.5421,-4.5783,-4.5819,-4.5351,-4.5347,-4.5344,0,-4.5216,-4.5303,-4.5418,-4.543,-4.542,-4.5477,-4.5475,-4.5479,-4.5511,-4.5545,-4.5565,-4.5612,-4.5637,-4.5676,-4.5624,-4.5536,-4.5766,-4.5634,-4.5753,-4.5754,-4.5805,-4.5803,-4.6178,-4.5827,-4.5826,-4.5825,-4.5825,0,-4.5498,-4.5609,-4.5531,-4.5602,-4.5723,-4.5651,-4.5774,-4.5761,-4.5766,-4.5834,-4.5744,-4.5811,-4.5738,-4.58,-4.5761,-4.5878,-4.589,-4.5877,-4.5865,-4.5885,-4.5887,-4.5904,-4.5887,-4.5835,-4.5833,-4.5831,-4.5829,0,-4.5798,-4.575,-4.5869,-4.5849,-4.5847,-4.5938,-4.5922,-4.5988,-4.596,-4.6048,-4.6064,-4.6021,-4.6089,-4.6041,-4.6109,-4.6083,-4.6237,-4.6202,-4.6232,-4.6223,-4.6344,-4.6334,-4.6743,-4.6794,-4.6411,-4.6414,-4.6418,0,-4.5981,-4.6063,-4.6052,-4.609,-4.6094,-4.6157,-4.6189,-4.6122,-4.616,-4.6179,-4.6244,-4.6303,-4.6346,-4.6459,-4.6436,-4.6488,-4.6454,-4.6594,-4.6461,-4.6478,-4.6456,-4.6452,-4.646,-4.6621,-4.6625,-4.6629,-4.6632,0,-4.631,-4.6283,-4.6331,-4.6372,-4.6412,-4.6442,-4.6464,-4.6502,-4.6434,-4.6482,-4.6548,-4.6582,-4.665,-4.6711,-4.6754,-4.6755,-4.6684,-4.6674,-4.6704,-4.6725,-4.6739,-4.6733,-4.6306,-4.6665,-4.6661,-4.6659,-4.6657,-4.6656,-4.6557,-4.6626,-4.6629,-4.6686,-4.6696,-4.6719,-4.678,-4.676,-4.6813,-4.6862,-4.682,-4.69,-4.6911,-4.6961,-4.6972,-4.7035,-4.6978,-4.7022,-4.7033,-4.7045,-4.7062,-4.673,-4.7043,-4.7042,-4.7041,-4.704,-4.7039,0,-4.6882,-4.6879,-4.6932,-4.6966,-4.7012,-4.6939,-4.696,-4.7004,-4.7075,-4.709,-4.7134,-4.7212,-4.7271,-4.7252,-4.7305,-4.736,-4.7329,-4.7376,-4.7371,-4.7373,-4.711,-4.7078,-4.74,-4.74,-4.74,-4.74,-4.74,-4.74,-4.7056,-4.7168,-4.7142,-4.7259,-4.7255,-4.7331,-4.735,-4.7372,-4.7383,-4.7473,-4.7521,-4.7507,-4.751,-4.7562,-4.7614,-4.7607,-4.7631,-4.7691,-4.7673,-4.7427,-4.7391,-4.7357,-4.7327,-4.7696,-4.7697,-4.793,-4.7932,-4.7934]},{"header":{"parameterUnit":"m.s-1","parameterCategory":1,"la1":30.2991,"la2":30.254,"lo1":-89.0895,"lo2":-89.0444,"dy":0.0017,"dx":0.0017,"nx":28,"ny":28,"refTime":"2025-01-11T09:00:00:Z","depth":0,"parameterNumber":3,"parameterNumberName":"V-component_of_WINDS"},"data":[0,0,0,0,0,0,0,0,0,0,0,0,0,0,0,0,0,0,0,0,0,0,0,0,0,0,0,0,0,0,0,0,0,0,0,0,0,0,0,0,0,0,0,0,0,0,0,0,0,0,0,0,0,0,0,0,0,0,-2.9209,-2.9207,0,-2.8996,-2.8994,-2.8992,-2.8895,-2.8895,-2.8895,-2.8895,-2.8666,-2.866,-2.8654,0,0,0,0,0,0,0,0,0,0,0,0,0,-2.9516,-2.9511,-2.9209,-2.9206,-2.9204,-2.8997,-2.8994,-2.8991,-2.8895,-2.8895,-2.8895,-2.8896,-2.8668,-2.8661,-2.8653,0,0,0,0,0,0,0,0,0,0,0,0,0,-2.9351,-2.9509,-2.9209,-2.9131,-2.9122,-2.8997,-2.8994,-2.899,-2.8895,-2.8895,-2.8895,-2.8896,-2.8671,-2.8662,-2.8652,-2.8586,0,0,-2.8623,-2.8619,0,0,0,0,0,0,0,0,-2.936,-2.934,-2.9145,-2.9136,-2.9126,-2.8973,-2.9018,-2.8854,-2.8895,-2.8981,-2.8895,-2.8896,-2.8767,-2.875,-2.8709,-2.8575,-2.8566,-2.8622,-2.8617,-2.8612,-2.861,0,0,0,0,0,0,0,-2.9372,-2.9348,-2.9124,-2.9142,-2.9131,-2.9101,-2.9078,-2.8987,-2.8874,-2.8973,-2.8966,-2.8942,-2.8762,-2.8718,-2.8703,-2.8562,-2.8623,-2.8614,-2.8608,-2.8605,-2.8356,-2.8355,0,0,0,0,0,0,-2.9398,-2.9359,-2.9131,-2.9118,-2.9247,-2.9096,-2.907,-2.9021,-2.8875,-2.8853,-2.8942,-2.8939,-2.8734,-2.8714,-2.8694,-2.8602,-2.8613,-2.8604,-2.8598,-2.8357,-2.8356,-2.8355,0,0,0,0,0,0,-2.9405,-2.9379,-2.914,-2.9236,-2.9204,-2.909,-2.9036,-2.9017,-2.8973,-2.8852,-2.883,-2.8919,-2.8734,-2.8707,-2.8613,-2.8593,-2.8599,-2.8591,-2.8358,-2.8356,-2.8355,-2.8422,0,0,0,0,0,0,-2.9414,-2.9382,-2.936,-2.9237,-2.9199,-2.9067,-2.9035,-2.9012,-2.8959,-2.8952,-2.8824,-2.8803,-2.8732,-2.8628,-2.8603,-2.858,-2.8583,-2.8359,-2.8357,-2.8356,-2.8421,-2.8423,-2.8425,0,0,0,0,0,-2.9426,-2.9386,-2.9359,-2.9332,-2.917,-2.9066,-2.9044,-2.8966,-2.8958,-2.8931,-2.8852,-2.8807,-2.86,-2.8619,-2.8591,-2.8564,-2.836,-2.8358,-2.8356,-2.842,-2.8422,-2.8425,0,0,0,0,0,0,-2.9507,-2.9369,-2.9337,-2.9258,-2.9175,-2.9051,-2.9015,-2.8972,-2.8887,-2.8884,-2.8787,-2.8759,-2.8671,-2.8608,-2.8632,-2.8489,-2.8475,-2.8468,-2.8534,-2.8535,-2.8537,-2.8553,-2.8575,0,0,0,0,0,-2.9517,-2.9449,-2.933,-2.927,-2.9231,-2.913,-2.9083,-2.9029,-2.8938,-2.8901,-2.8816,-2.8725,-2.8638,-2.8583,-2.8498,-2.8411,-2.8378,-2.8379,-2.8381,-2.8383,-2.8376,-2.8319,-2.8316,-2.8348,-2.8348,-2.8348,0,0,-2.9534,-2.945,-2.9412,-2.9284,-2.9214,-2.914,-2.9101,-2.9027,-2.8969,-2.8889,-2.8794,-2.8727,-2.8619,-2.8527,-2.8482,-2.8472,-2.836,-2.838,-2.8383,-2.8375,-2.8317,-2.8314,-2.8311,-2.8347,-2.8347,-2.8347,0,0,-2.9527,-2.946,-2.94,-2.933,-2.9225,-2.9157,-2.9143,-2.9024,-2.8977,-2.8882,-2.8817,-2.8745,-2.8601,-2.8524,-2.8466,-2.8426,-2.8379,-2.84,-2.8409,-2.8355,-2.8352,-2.8349,-2.8329,-2.8324,-2.8394,-2.8394,-2.8395,0,-2.9561,-2.9453,-2.9374,-2.9302,-2.9245,-2.917,-2.9106,-2.904,-2.8911,-2.887,-2.8861,-2.8674,-2.8596,-2.8482,-2.8472,-2.8429,-2.8404,-2.8413,-2.836,-2.8356,-2.8352,-2.8332,-2.8325,-2.8397,-2.8397,-2.8397,-2.8396,0,-2.9497,-2.9422,-2.9386,-2.9265,-2.9203,-2.9136,-2.9041,-2.8987,-2.8938,-2.887,-2.8768,-2.8672,-2.8563,-2.8532,-2.8483,-2.8409,-2.8405,-2.838,-2.8363,-2.8353,-2.8332,-2.8324,-2.8402,-2.8401,-2.84,-2.8399,0,0,-2.9538,-2.9372,-2.936,-2.9301,-2.9177,-2.9115,-2.904,-2.8936,-2.8889,-2.8801,-2.8731,-2.8608,-2.8582,-2.8516,-2.8457,-2.841,-2.8376,-2.8388,-2.8384,-2.8386,-2.8281,-2.8299,-2.8292,-2.8345,-2.8344,-2.8342,-2.8288,0,-2.9511,-2.938,-2.9304,-2.9201,-2.9126,-2.9052,-2.8986,-2.8899,-2.8832,-2.8755,-2.8679,-2.8591,-2.8567,-2.8525,-2.8476,-2.8392,-2.8353,-2.8395,-2.8274,-2.8271,-2.8301,-2.8282,-2.8301,-2.8256,-2.828,-2.8279,-2.8278,0,-2.9464,-2.9379,-2.9269,-2.9148,-2.9114,-2.9057,-2.8952,-2.8882,-2.8779,-2.8732,-2.8657,-2.8598,-2.8509,-2.8501,-2.8374,-2.8403,-2.8349,-2.8299,-2.8295,-2.8278,-2.8272,-2.826,-2.824,-2.8231,-2.8265,-2.8266,-2.8267,0,-2.95,-2.9357,-2.9271,-2.9224,-2.9083,-2.9043,-2.8981,-2.8879,-2.8819,-2.8725,-2.8684,-2.8581,-2.8523,-2.8442,-2.8353,-2.8356,-2.8232,-2.8218,-2.8185,-2.8187,-2.8161,-2.8163,-2.8128,-2.8132,-2.8132,-2.8133,-2.8133,0,-2.9477,-2.9411,-2.9285,-2.9232,-2.9154,-2.9064,-2.8988,-2.8919,-2.8828,-2.8755,-2.8684,-2.8616,-2.8505,-2.8421,-2.8351,-2.8252,-2.8228,-2.8183,-2.8164,-2.8188,-2.8193,-2.8149,-2.8148,-2.8131,-2.8131,-2.8131,-2.8132,0,-2.9503,-2.9417,-2.9318,-2.9191,-2.9157,-2.9105,-2.8993,-2.8935,-2.8863,-2.8772,-2.8745,-2.863,-2.8528,-2.8432,-2.8295,-2.8246,-2.8145,-2.8124,-2.8182,-2.8171,-2.8142,-2.8144,-2.8073,-2.8057,-2.8078,-2.8078,-2.8077,0,-2.9493,-2.9441,-2.9308,-2.9256,-2.9197,-2.9114,-2.9052,-2.896,-2.8897,-2.8773,-2.8728,-2.8621,-2.8531,-2.8369,-2.827,-2.8162,-2.8134,-2.8117,-2.8118,-2.8141,-2.8128,-2.8131,-2.8122,-2.8118,-2.8118,-2.8119,-2.8119,0,-2.9483,-2.9441,-2.9358,-2.9258,-2.9187,-2.9103,-2.9015,-2.8975,-2.8865,-2.8797,-2.8693,-2.8623,-2.8482,-2.8373,-2.8254,-2.8183,-2.8129,-2.8119,-2.8105,-2.8127,-2.8161,-2.8137,-2.8182,-2.8121,-2.8121,-2.8121,-2.812,-2.812,-2.9487,-2.9435,-2.9333,-2.924,-2.9165,-2.9084,-2.9022,-2.8942,-2.8855,-2.8735,-2.8684,-2.8577,-2.8467,-2.8302,-2.8231,-2.8141,-2.8129,-2.8111,-2.8105,-2.8101,-2.8103,-2.8178,-2.8119,-2.8119,-2.8119,-2.8119,-2.8119,0,-2.947,-2.9399,-2.9315,-2.9196,-2.912,-2.9081,-2.898,-2.8918,-2.8826,-2.8731,-2.8643,-2.8519,-2.8412,-2.8304,-2.8189,-2.8138,-2.8109,-2.811,-2.8111,-2.8094,-2.8123,-2.8144,-2.8134,-2.8134,-2.8134,-2.8134,-2.8134,-2.8134,-2.9452,-2.936,-2.9305,-2.9172,-2.91,-2.8998,-2.8943,-2.8865,-2.8787,-2.8654,-2.8566,-2.8497,-2.8393,-2.827,-2.8167,-2.8137,-2.8096,-2.8103,-2.8066,-2.8093,-2.8093,-2.8093,-2.8112,-2.8096,-2.8096,-2.8044,-2.8043,-2.8043]}]]